loading
|

THOR ABLESTAR DEB, 656

Orbit data source: Space-Track

THOR ABLESTAR DEB, 656 is space debris in LEO originally from a launch on Thu, 29 Jun 1961 UTC launched from the Air Force Eastern Test Range (AFETR). Debris objects in space refer to the collection of defunct objects orbiting the Earth. Examples of debris include non-operational satellites, rocket bodies, and fragments generated from explosions, collisions, or faulty payload assembly.

Loading next visibility...
Loading greatness...
THOR ABLESTAR DEB details
Identifier
656, 1961-015HH
Orbit
LEO
Last TLE update1 day ago
Origin
Flag of USUSAF SSD (US)
ManufacturerUnknown
Mission statusUnknown
MissionUnknown
Bus & MotorUnknown
MassUnknown
Launch date (UTC)
1961-06-29 (63 years ago)
Launch vehicleUnknown
Launch site
Air Force Eastern Test Range (AFETR)
Object type
Payload
Rocket body
Debris
Radar Cross SectionSmall (<0.1 m²)

Expand to show TLE details & history

TLE from 1 day ago
0 THOR ABLESTAR DEB
1 00656U 61015HH  24250.41924735  .00004091  00000-0  84997-2 0  9991
2 00656  66.2898  88.5119 0661187  79.4354 288.0398 12.71004110884477
Epoch: 2024-09-06T10:03Z
Definitive object data (Epoch: 2024-09-06T10:03:42.971Z)
Latitude-0.00005°
Longitude-48.40923°
Altitude1,252.49 km
Speed7.288 km/s
True Right ascension05h 54m 02s
True Declination0° 00' 00"
Sunlit
Object was in daylight at TLE epoch
Predictive object data (real-time)
Latitude66.0942°
Longitude48.5896°
Altitude891.226 km
Speed7.647 km/s
Apparent Right ascension20h 50m 28s
Apparent Declination45° 26' 01"
Sunlit
Object is in daylight
Predictive observer data (real-time)
Local Sidereal Time10:45:24
Azimuth19.718° NNE
Elevation-0.848°
Doppler factor1
Orbital elements
Apogee1,889.105 km
Perigee863.667 km
Semi-major axis7,754.523 km
Eccentricity0.0661187
Inclination66.2898°
RAAN88.5119°
Arg. of periapsis79.4354°
True anomaly280.66705°
Mean anomaly288.0398°
Eccentric anomaly284.37°
Mean motion3.17841 °/min
BSTAR0.0084997
Period113.26 mins
No data available

THOR ABLESTAR DEB Visibility forecast

Observer location: 39.9160978°, -105.1181434

THOR ABLESTAR DEB is not visible in the next 10 days
Span
Click to sort rows by Start time (UTC) header in descending order
Start Az.
Max El. time (UTC)
Max El. Az.
Max El.
End time (UTC)
End Az.